Regional Weather Roundup
Issued by NWS

Home | Current Version | Previous Version | Text Only | Print | Product List | Glossary On
Versions: 1 2 3 4 5 6 7 8 9 10 11 12 13 14 15 16 17 18 19 20 21 22 23 24 25 26 27 28 29 30 31 32 33 34 35 36 37 38 39 40 41 42 43 44 45 46 47 48 49 50
000
ASUS46 KSEW 162110
RWRWA

WASHINGTON REGIONAL WEATHER ROUNDUP
NATIONAL WEATHER SERVICE SEATTLE WA
200 PM PDT TUE SEP 16 2014

NOTE:"FAIR" INDICATES FEW OR NO CLOUDS BELOW 12,000 FEET WITH NO
SIGNIFICANT WEATHER AND/OR OBSTRUCTIONS TO VISIBILITY.

WAZ505-507>509-162200-
SEATTLE, TACOMA, EVERETT, AND VICINITY

CITY           SKY/WX    TMP DP  RH WIND       PRES   REMARKS
EVERETT        MOSUNNY   69  56  62 W6        29.90F
BOEING FIELD   MOSUNNY   74  54  49 SW8       29.89S
RENTON         MOSUNNY   73  57  57 VRB3      29.88S
SEATAC AIRPORT PTSUNNY   71  54  54 VRB5      29.90F
JBLM-MCCHORD   MOSUNNY   74  54  49 W6        29.90S
PUYALLUP       NOT AVBL
JBLM-FT LEWIS  MOSUNNY   72  54  52 VRB6      29.89S
TACOMA NARROWS MOSUNNY   69  54  58 S7        29.90S
$$

WAZ001-503-506-510-514-515-162200-
NORTH INTERIOR

CITY           SKY/WX    TMP DP  RH WIND       PRES   REMARKS
BELLINGHAM     SUNNY     68  52  56 S9G17     29.86F
FRIDAY HARBOR  MOSUNNY   61  52  72 SE7       29.89S
EASTSOUND      MOSUNNY   68  48  49 S13G20    29.84F
PORT ANGELES   MOSUNNY   66  54  65 NW9       29.89R
NAS WHIDBEY    PTSUNNY   68  54  60 SW10      29.89F
BURLINGTON     SUNNY     72  57  60 S8        29.89F
$$

WAZ020-022-039-040-504-511-512-162200-
SOUTHWEST INTERIOR

CITY           SKY/WX    TMP DP  RH WIND       PRES   REMARKS
SHELTON        PTSUNNY   68  54  60 SW15      29.88S
OLYMPIA        PTSUNNY   69  54  58 SW6       29.90S
CHEHALIS       FAIR      73  57  56 SW6G12    29.91S
KELSO          CLOUDY    66  52  59 SW3       29.95F
VANCOUVER      MOSUNNY   69  52  54 SW6       29.92S
SCAPPOOSE, OR  PTSUNNY   70  52  52 CALM      29.92S
PORTLAND, OR   PTSUNNY   71  54  54 NW8       29.92S
$$

WAZ021-516-517-162200-
WASHINGTON COAST

CITY           SKY/WX    TMP DP  RH WIND       PRES   REMARKS
FORKS          CLOUDY    66  56  70 S9        29.92R
HOQUIAM        CLOUDY    67  59  75 SW13      29.92S
ASTORIA, OR    CLOUDY    67  54  63 W7        29.92S
$$

WAZ019-023-024-040-518-519-162200-
CASCADE MOUNTAINS AND COLUMBIA GORGE

CITY           SKY/WX    TMP DP  RH WIND       PRES   REMARKS
STAMPEDE PASS  NOT AVBL
TROUTDALE, OR  MOSUNNY   72  52  49 VRB3      29.90S
THE DALLES, OR MOSUNNY   82  47  29 NW17      29.79F
$$

WAZ026-027-041>044-520-521-162200-
EAST SLOPES

CITY           SKY/WX    TMP DP  RH WIND       PRES   REMARKS
OMAK           MOSUNNY   81  35  19 CALM      29.83F
WENATCHEE      SUNNY     85  37  18 CALM      29.81F
ELLENSBURG     SUNNY     85  39  19 VRB3      29.84F
YAKIMA         MOSUNNY   85  38  18 E5        29.81F
$$

WAZ028-034-035-162200-
COLUMBIA BASIN

CITY           SKY/WX    TMP DP  RH WIND       PRES   REMARKS
EPHRATA        SUNNY     86  33  15 VRB3      29.81F
MOSES LAKE     SUNNY     85  36  17 SE5       29.82F
PASCO          MOSUNNY   83  47  28 N6        29.80F
HERMISTON, OR  MOSUNNY   83  40  21 VRB5      29.80F
$$

WAZ036>038-162200-
NORTHEAST WASHINGTON

CITY           SKY/WX    TMP DP  RH WIND       PRES   REMARKS
SPOKANE GEIGER PTSUNNY   79  41  25 NE8       29.88F
SPOKANE FELTS  MOSUNNY   81  39  22 N3        29.87F
FAIRCHILD AFB  MOSUNNY   80  40  23 NE6       29.89S
COEURDALENE,ID MOSUNNY   81  43  26 NE5       29.88F
DEER PARK      PTSUNNY   80  43  26 E5        29.88F
$$

WAZ029>033-162200-
SOUTHEAST WASHINGTON

CITY           SKY/WX    TMP DP  RH WIND       PRES   REMARKS
PULLMAN        MOSUNNY   85  33  15 W12       29.91S
LEWISTON, ID   MOSUNNY   85  38  18 W3        29.82F
WALLA WALLA    PTSUNNY   84  36  18 SW6       29.84F
PENDLETON, OR  MOSUNNY   84  34  16 W9        29.83F
$$



USA.gov is the U.S. government's official web portal to all federal, state and local government web resources and services.